Regional Weather Roundup
Issued by NWS

Home | Current Version | Previous Version | Graphics & Text | Print | Product List | Glossary On
Versions: 1 2 3 4 5 6 7 8 9 10 11 12 13 14 15 16 17 18 19 20 21 22 23 24 25 26 27 28 29 30 31 32 33 34 35 36 37 38 39 40 41 42 43 44 45 46 47 48 49 50
000
ASUS43 KTOP 261859
RWRKS

WEATHER ROUNDUP FOR KANSAS
NATIONAL WEATHER SERVICE GOODLAND KS
100 PM CST MON JAN 26 2015

NOTE:  "FAIR" INDICATES FEW OR NO CLOUDS BELOW 12,000 FEET WITH NO
SIGNIFICANT WEATHER AND/OR OBSTRUCTIONS TO VISIBILITY.

KSZ001>006-013>018-027>032-041>047-262000-
NORTHWEST KANSAS

CITY           SKY/WX    TMP DP  RH WIND       PRES   REMARKS
GOODLAND       SUNNY     66  31  27 N16G24    30.17F
HAYS           SUNNY     68  34  28 NW20      30.06F
HILL CITY      SUNNY     68  31  25 NW16G28   30.08F
RUSSELL        SUNNY     68  33  27 NW20      30.03F
$$

KSZ061>065-074>080-084>089-262000-
SOUTHWEST KANSAS

CITY           SKY/WX    TMP DP  RH WIND       PRES   REMARKS
DODGE CITY     SUNNY     69  29  22 NW16G25   30.12F
ELKHART          N/A     67  31  26 N14         N/A
GARDEN CITY    SUNNY     69  28  21 N18       30.14F
GREAT BEND     SUNNY     66  34  30 NW17      30.06F
LIBERAL        SUNNY     66  34  30 NW14G22   30.19F
$$

KSZ066>073-081>083-090>101-262000-
SOUTHEAST KANSAS

CITY           SKY/WX    TMP DP  RH WIND       PRES   REMARKS
CHANUTE        SUNNY     57  34  41 SW12      29.97F
COFFEYVILLE    SUNNY     57  33  40 W13       29.99F
HUTCHINSON     SUNNY     69  35  28 W16       30.01F
MEDICINE LODGE   N/A     71  34  25 N14G21    30.04F
NEWTON         SUNNY     63  36  36 NW14G21   30.02F
PARSONS        SUNNY     56  34  43 W12       30.00F
WICHITA INTL   SUNNY     68  35  29 NW16G22   30.00F
WICHITA JABRA  SUNNY     63  35  35 W12       30.01F
WINFIELD       SUNNY     64  31  28 W14       30.03F
$$

KSZ007>012-019>026-033>040-048>060-102>105-262000-
NORTHEAST KANSAS

CITY           SKY/WX    TMP DP  RH WIND       PRES   REMARKS
CONCORDIA      SUNNY     65  35  33 NW20G30   29.99R
EMPORIA        SUNNY     61  34  36 W15       29.95F
LAWRENCE       SUNNY     55  34  45 NW12      29.93F
MANHATTAN      SUNNY     63  36  36 NW9G17    29.96F
OLATHE IND     SUNNY     53  35  50 W16       29.93F
OLATHE EXE     SUNNY     51  35  54 W10       29.92F
SALINA         SUNNY     68  35  29 W16       29.99F
TOPEKA BILLARD SUNNY     58  34  40 W9        29.93F
TOPEKA FORBES  SUNNY     59  34  39 NW15      29.92F
$$



USA.gov is the U.S. government's official web portal to all federal, state and local government web resources and services.